Preview of NWS' New Version of Forecast
This preview is not operational and should not be used for support decisions.

Regional Weather Roundup (RWR)

Issued by National Weather Service (NWS)

                            
000
ASUS45 KABQ 220001
RWRNM 
NEW MEXICO REGIONAL WEATHER ROUNDUP
NATIONAL WEATHER SERVICE ALBUQUERQUE NM
600 PM MDT SUN APR 21 2019

NOTE: "FAIR" MEANS FEW OR NO CLOUDS BELOW 12,000 FEET AGL WITH NO
       SIGNIFICANT WEATHER OR OBSTRUCTIONS TO VISION.

      THIS PRODUCT IS RELEASED AS TWO VERSIONS.  ONE VERSION NEAR
      THE TOP OF THE HOUR CONTAINING PRELIMINARY DATA FROM ALBUQUERQUE
      AND OTHER STATIONS.  A FINAL VERSION WITH ADDITIONAL DATA IS 
      ISSUED ABOUT 10 MINUTES AFTER THE HOUR.
 
NMZ501-503-504-510>518-220100-
NORTHWEST PLATEAU/NORTHCENTRAL MOUNTAINS
  
CITY           SKY/WX    TMP DP  RH WIND       PRES   REMARKS
FARMINGTON     FAIR      70  18  13 W10       29.87F                  
6HR MIN TEMP:  67; 6HR MAX TEMP:  74;                                

LOS ALAMOS       N/A     64  17  16 S9G16     30.01S                  
SANTA FE       FAIR      68  19  15 W10       29.95F                  
6HR MIN TEMP:  66; 6HR MAX TEMP:  72;                                

TAOS           FAIR      65  16  15 W18G26    30.02R                  

$$
NMZ402-403-502-505>509-220100-
WESTCENTRAL MOUNTAINS/SOUTHWEST MOUNTAINS
  
CITY           SKY/WX    TMP DP  RH WIND       PRES   REMARKS
GALLUP         FAIR      67  18  15 SW21      29.96S                  
6HR MIN TEMP:  64; 6HR MAX TEMP:  71;                                

GRANTS         FAIR      68  15  13 W16G24    29.99R                  
SILVER CITY    FAIR      75  22  14 W16G23    29.97S                  

$$
NMZ407-409-411-412-220100-
SOUTHERN DESERTS
  
CITY           SKY/WX    TMP DP  RH WIND       PRES   REMARKS
DEMING         FAIR      82  21  10 W16       29.90F                  
6HR MIN TEMP:  75; 6HR MAX TEMP:  83;                                

LAS CRUCES     FAIR      83  22  10 W15G21    29.92S                  
HOLLOMAN AFB   FAIR      83  21  10 SW18      29.90R                  
ALAMOGORDO     FAIR      82  21  10 SW9       29.90F                  
T OR C         FAIR      81  12   7 W16G24    29.88S                  
6HR MIN TEMP:  74; 6HR MAX TEMP:  84;                                


$$
NMZ519>523-220100-
CENTRAL VALLEYS/CENTRAL HIGHLANDS
  
CITY           SKY/WX    TMP DP  RH WIND       PRES   REMARKS
ALBUQUERQUE    FAIR      73  21  14 E5        29.90S                  
6HR MIN TEMP:  68; 6HR MAX TEMP:  76;                                

DOUBLE EAGLE   MOSUNNY   73  27  17 SW9       29.92S                  
CLINES CORNERS FAIR      68  18  14 W20G28    30.00F                  
6HR MIN TEMP:  64; 6HR MAX TEMP:  69;                                

BELEN          FAIR      78  19  11 S7G17     29.87S                  
6HR MIN TEMP:  70; 6HR MAX TEMP:  78;                                

SOCORRO        FAIR      81  15   8 W7        29.85S                  
6HR MIN TEMP:  73; 6HR MAX TEMP:  83;                                


$$
NMZ524>526-539-540-220100-
SOUTHCENTRAL MOUNTAINS
  
CITY           SKY/WX    TMP DP  RH WIND       PRES   REMARKS
RUIDOSO        FAIR      68  19  15 SW20G26   30.04R                  

$$
NMZ527>531-220100-
NORTHEAST HIGHLANDS/NORTHEAST PLAINS
  
CITY           SKY/WX    TMP DP  RH WIND       PRES   REMARKS
LAS VEGAS      FAIR      67  20  16 W20G29    29.98R                  
6HR MIN TEMP:  65; 6HR MAX TEMP:  70;                                

RATON          FAIR      71  14  11 W6        29.90R                  
6HR MIN TEMP:  70; 6HR MAX TEMP:  75;                                

CLAYTON        FAIR      76  22  13 SW14G23   29.82R                  
6HR MIN TEMP:  73; 6HR MAX TEMP:  79;                                


$$
NMZ532>537-220100-
EASTCENTRAL PLAINS
  
CITY           SKY/WX    TMP DP  RH WIND       PRES   REMARKS
SANTA ROSA     FAIR      78  19  11 W15G25    29.87S                  
TUCUMCARI      FAIR      82  25  12 W16G25    29.80R                  
6HR MIN TEMP:  80; 6HR MAX TEMP:  85;                                

CANNON AFB     FAIR      82  22  11 SW13      29.86S                  
6HR MIN TEMP:  78; 6HR MAX TEMP:  83;                                

CLOVIS AIRPORT FAIR      82  24  12 W17       29.85S                  

$$
NMZ028-029-538-220100-
SOUTHEAST PLAINS
  
CITY           SKY/WX    TMP DP  RH WIND       PRES   REMARKS
ROSWELL        FAIR      88  16   7 W18G25    29.79S                  
6HR MIN TEMP:  86; 6HR MAX TEMP:  92;                                

ARTESIA        FAIR      86  27  11 SW24G33   29.82S                  
CARLSBAD       FAIR      87  28  12 SW17      29.82S                  
6HR MIN TEMP:  85; 6HR MAX TEMP:  90;                                

HOBBS          SUNNY     86  19   8 SW15G24   29.86S                  


$$